| time (UTC) | temp C | wind direction | speed KPH | gust KPH | rain 1hr cm | rain 24hr cm | rain mn cm | humidity % | barometer mb |
| 20260505041706 | 12 | 61 | 0.0 | 0.0 | 0.00 | 0.00 | 0.00 | 62 | 1009.8 |
| 20260505041207 | 12 | 61 | 0.0 | 3.2 | 0.00 | 0.00 | 0.00 | 61 | 1009.6 |
| 20260505040946 | 12 | 61 | 0.0 | 4.8 | 0.00 | 0.00 | 0.00 | 59 | 1009.6 |
| 20260505040203 | 12 | 62 | 3.2 | 4.8 | 0.00 | 0.00 | 0.00 | 59 | 1009.6 |
| 20260505035703 | 12 | 63 | 0.0 | 4.8 | 0.00 | 0.00 | 0.00 | 58 | 1009.5 |
| 20260505035202 | 12 | 63 | 3.2 | 6.4 | 0.00 | 0.00 | 0.00 | 59 | 1009.4 |
| 20260505034701 | 12 | 63 | 1.6 | 6.4 | 0.00 | 0.00 | 0.00 | 59 | 1009.5 |
| 20260505034206 | 12 | 52 | 3.2 | 6.4 | 0.00 | 0.00 | 0.00 | 58 | 1009.5 |
| 20260505033704 | 13 | 52 | 4.8 | 6.4 | 0.00 | 0.00 | 0.00 | 58 | 1009.6 |
| 20260505033205 | 13 | 83 | 3.2 | 6.4 | 0.00 | 0.00 | 0.00 | 58 | 1009.6 |
| 20260505032705 | 13 | 54 | 3.2 | 8.0 | 0.00 | 0.00 | 0.00 | 57 | 1009.6 |
| 20260505032444 | 12 | 65 | 3.2 | 8.0 | 0.00 | 0.00 | 0.00 | 59 | 1009.8 |
| 20260505031704 | 12 | 65 | 3.2 | 4.8 | 0.00 | 0.00 | 0.00 | 58 | 1009.9 |
| 20260505031203 | 12 | 34 | 3.2 | 4.8 | 0.00 | 0.00 | 0.00 | 59 | 1010.0 |
| 20260505030704 | 12 | 32 | 1.6 | 4.8 | 0.00 | 0.00 | 0.00 | 60 | 1010.0 |
| 20260505030200 | 11 | 14 | 1.6 | 4.8 | 0.00 | 0.00 | 0.00 | 61 | 1010.1 |
| 20260505025701 | 11 | 14 | 3.2 | 4.8 | 0.00 | 0.00 | 0.00 | 62 | 1010.1 |
| 20260505025202 | 11 | 14 | 3.2 | 4.8 | 0.00 | 0.00 | 0.00 | 61 | 1010.1 |
| 20260505024701 | 11 | 8 | 3.2 | 4.8 | 0.00 | 0.00 | 0.00 | 61 | 1010.2 |
| 20260505024203 | 11 | 8 | 1.6 | 3.2 | 0.00 | 0.00 | 0.00 | 61 | 1010.2 |
| 20260505023705 | 12 | 8 | 3.2 | 4.8 | 0.00 | 0.00 | 0.00 | 60 | 1010.1 |
| 20260505023201 | 12 | 3 | 0.0 | 8.0 | 0.00 | 0.00 | 0.00 | 59 | 1010.2 |
| 20260505022701 | 12 | 4 | 3.2 | 9.7 | 0.00 | 0.00 | 0.00 | 58 | 1010.2 |
| 20260505022445 | 12 | 52 | 6.4 | 11.3 | 0.00 | 0.00 | 0.00 | 56 | 1010.1 |
| 20260505021659 | 12 | 48 | 8.0 | 11.3 | 0.00 | 0.00 | 0.00 | 57 | 1010.2 |
| 20260505021200 | 12 | 49 | 6.4 | 9.7 | 0.00 | 0.00 | 0.00 | 58 | 1010.2 |
| 20260505020942 | 12 | 58 | 8.0 | 9.7 | 0.00 | 0.00 | 0.00 | 60 | 1010.2 |
| 20260505020159 | 11 | 54 | 3.2 | 6.4 | 0.00 | 0.00 | 0.00 | 62 | 1010.2 |
| 20260505015659 | 12 | 54 | 4.8 | 6.4 | 0.00 | 0.00 | 0.00 | 60 | 1010.3 |
| 20260505015159 | 12 | 54 | 4.8 | 6.4 | 0.00 | 0.00 | 0.00 | 59 | 1010.4 |
| 20260505014700 | 12 | 54 | 4.8 | 9.7 | 0.00 | 0.00 | 0.00 | 60 | 1010.5 |
| 20260505014446 | 12 | 54 | 4.8 | 9.7 | 0.00 | 0.00 | 0.00 | 60 | 1010.5 |
| 20260505013659 | 12 | 55 | 6.4 | 8.0 | 0.00 | 0.00 | 0.00 | 60 | 1010.6 |
| 20260505013159 | 12 | 42 | 4.8 | 6.4 | 0.00 | 0.00 | 0.00 | 60 | 1010.6 |
| 20260505012948 | 11 | 42 | 4.8 | 6.4 | 0.00 | 0.00 | 0.00 | 61 | 1010.7 |
| 20260505012202 | 12 | 42 | 4.8 | 6.4 | 0.00 | 0.00 | 0.00 | 61 | 1010.8 |
| 20260505011701 | 12 | 42 | 4.8 | 4.8 | 0.00 | 0.00 | 0.00 | 61 | 1010.8 |
| 20260505011202 | 12 | 42 | 3.2 | 6.4 | 0.00 | 0.00 | 0.00 | 59 | 1010.9 |
| 20260505010659 | 12 | 42 | 4.8 | 6.4 | 0.00 | 0.00 | 0.00 | 60 | 1010.9 |
| 20260505010158 | 11 | 38 | 3.2 | 4.8 | 0.00 | 0.00 | 0.00 | 62 | 1010.9 |
| 20260505005950 | 11 | 38 | 3.2 | 4.8 | 0.00 | 0.00 | 0.00 | 62 | 1011.1 |
| 20260505005201 | 12 | 38 | 3.2 | 4.8 | 0.00 | 0.00 | 0.00 | 61 | 1011.1 |
| 20260505004944 | 12 | 38 | 3.2 | 6.4 | 0.00 | 0.00 | 0.00 | 60 | 1011.3 |
| 20260505004429 | 12 | 34 | 4.8 | 6.4 | 0.00 | 0.00 | 0.00 | 59 | 1011.3 |
| 20260505003650 | 12 | 38 | 3.2 | 6.4 | 0.00 | 0.00 | 0.00 | 59 | 1011.3 |
| 20260505003151 | 13 | 38 | 4.8 | 6.4 | 0.00 | 0.00 | 0.00 | 58 | 1011.5 |
| 20260505002650 | 13 | 16 | 4.8 | 6.4 | 0.00 | 0.00 | 0.00 | 58 | 1011.5 |
| 20260505002144 | 13 | 0 | 1.6 | 6.4 | 0.00 | 0.00 | 0.00 | 57 | 1011.3 |
| 20260505001644 | 13 | 331 | 3.2 | 14.5 | 0.00 | 0.00 | 0.00 | 56 | 1011.6 |
| 20260505001134 | 13 | 51 | 6.4 | 14.5 | 0.00 | 0.00 | 0.00 | 55 | 1011.6 |
| 20260505000635 | 13 | 62 | 1.6 | 14.5 | 0.00 | 0.00 | 0.00 | 56 | 1011.6 |
| 20260505000137 | 13 | 48 | 6.4 | 14.5 | 0.00 | 0.00 | 0.00 | 54 | 1011.6 |
| 20260504235635 | 13 | 49 | 8.0 | 14.5 | 0.00 | 0.00 | 0.00 | 55 | 1011.6 |
| 20260504235133 | 13 | 58 | 8.0 | 14.5 | 0.00 | 0.00 | 0.00 | 55 | 1011.7 |
| 20260504234631 | 13 | 30 | 1.6 | 11.3 | 0.00 | 0.00 | 0.00 | 55 | 1011.8 |
| 20260504234415 | 13 | 38 | 8.0 | 16.1 | 0.00 | 0.00 | 0.00 | 55 | 1011.7 |
| 20260504233612 | 13 | 66 | 9.7 | 16.1 | 0.00 | 0.00 | 0.00 | 56 | 1011.7 |
| 20260504233112 | 13 | 65 | 8.0 | 9.7 | 0.00 | 0.00 | 0.00 | 58 | 1011.8 |
| 20260504232846 | 13 | 58 | 4.8 | 9.7 | 0.00 | 0.00 | 0.00 | 59 | 1011.9 |
| 20260504232105 | 13 | 0 | 4.8 | 16.1 | 0.00 | 0.00 | 0.00 | 58 | 1012.0 |
| 20260504231851 | 14 | 58 | 4.8 | 17.7 | 0.00 | 0.00 | 0.00 | 56 | 1012.0 |
| 20260504231103 | 14 | 59 | 12.9 | 20.9 | 0.00 | 0.00 | 0.00 | 56 | 1012.0 |
| 20260504230612 | 14 | 63 | 12.9 | 20.9 | 0.00 | 0.00 | 0.00 | 57 | 1012.0 |
| 20260504230106 | 14 | 66 | 14.5 | 20.9 | 0.00 | 0.00 | 0.00 | 58 | 1012.1 |
| 20260504225836 | 14 | 61 | 14.5 | 19.3 | 0.00 | 0.00 | 0.00 | 59 | 1012.2 |
| 20260504225058 | 14 | 51 | 8.0 | 14.5 | 0.00 | 0.00 | 0.00 | 59 | 1012.2 |
| 20260504224555 | 14 | 45 | 9.7 | 14.5 | 0.00 | 0.00 | 0.00 | 59 | 1012.2 |
| 20260504224054 | 14 | 51 | 4.8 | 9.7 | 0.00 | 0.00 | 0.00 | 59 | 1012.4 |
| 20260504223555 | 14 | 71 | 0.0 | 14.5 | 0.00 | 0.00 | 0.00 | 58 | 1012.3 |
| 20260504223055 | 15 | 61 | 8.0 | 14.5 | 0.00 | 0.00 | 0.00 | 58 | 1012.3 |
| 20260504222554 | 15 | 86 | 6.4 | 8.0 | 0.00 | 0.00 | 0.00 | 59 | 1012.4 |
| 20260504222056 | 15 | 154 | 3.2 | 17.7 | 0.00 | 0.00 | 0.00 | 59 | 1012.4 |
| 20260504221557 | 15 | 61 | 3.2 | 17.7 | 0.00 | 0.00 | 0.00 | 57 | 1012.4 |
| 20260504221057 | 15 | 48 | 11.3 | 19.3 | 0.00 | 0.00 | 0.00 | 58 | 1012.4 |
| 20260504220845 | 15 | 85 | 8.0 | 19.3 | 0.00 | 0.00 | 0.00 | 59 | 1012.4 |
| 20260504220058 | 15 | 63 | 9.7 | 19.3 | 0.00 | 0.00 | 0.00 | 60 | 1012.5 |
| 20260504215553 | 15 | 63 | 11.3 | 19.3 | 0.00 | 0.00 | 0.00 | 60 | 1012.5 |
| 20260504215056 | 15 | 76 | 9.7 | 14.5 | 0.00 | 0.00 | 0.00 | 60 | 1012.6 |
| 20260504214557 | 15 | 93 | 4.8 | 9.7 | 0.00 | 0.00 | 0.00 | 60 | 1012.6 |
| 20260504214057 | 15 | 75 | 0.0 | 11.3 | 0.00 | 0.00 | 0.00 | 60 | 1012.7 |
| 20260504213551 | 15 | 86 | 8.0 | 17.7 | 0.00 | 0.00 | 0.00 | 60 | 1012.7 |
| 20260504213052 | 15 | 55 | 8.0 | 17.7 | 0.00 | 0.00 | 0.00 | 60 | 1012.7 |
| 20260504212549 | 15 | 80 | 11.3 | 20.9 | 0.00 | 0.00 | 0.00 | 61 | 1012.8 |
| 20260504212050 | 15 | 75 | 14.5 | 20.9 | 0.00 | 0.00 | 0.00 | 62 | 1012.8 |
| 20260504211550 | 15 | 96 | 11.3 | 19.3 | 0.00 | 0.00 | 0.00 | 62 | 1012.8 |
| 20260504211047 | 15 | 48 | 11.3 | 17.7 | 0.00 | 0.00 | 0.00 | 61 | 1012.8 |
| 20260504210548 | 15 | 63 | 8.0 | 19.3 | 0.00 | 0.00 | 0.00 | 61 | 1012.8 |
| 20260504210047 | 15 | 97 | 8.0 | 20.9 | 0.00 | 0.00 | 0.00 | 61 | 1012.9 |
| 20260504205549 | 15 | 55 | 14.5 | 20.9 | 0.00 | 0.00 | 0.00 | 61 | 1012.8 |
| 20260504205046 | 15 | 82 | 11.3 | 16.1 | 0.00 | 0.00 | 0.00 | 61 | 1012.9 |
| 20260504204546 | 15 | 71 | 9.7 | 17.7 | 0.00 | 0.00 | 0.00 | 61 | 1012.8 |
| 20260504204044 | 15 | 71 | 11.3 | 17.7 | 0.00 | 0.00 | 0.00 | 61 | 1012.8 |
| 20260504203543 | 15 | 73 | 11.3 | 16.1 | 0.00 | 0.00 | 0.00 | 61 | 1012.7 |
| 20260504203329 | 15 | 63 | 11.3 | 17.7 | 0.00 | 0.00 | 0.00 | 61 | 1012.7 |
| 20260504202541 | 15 | 76 | 9.7 | 20.9 | 0.00 | 0.00 | 0.00 | 61 | 1012.7 |
| 20260504202119 | 15 | 61 | 12.9 | 19.3 | 0.00 | 0.00 | 0.00 | 62 | 1012.6 |
| 20260504202101 | 15 | 58 | 11.3 | 20.9 | 0.00 | 0.00 | 0.00 | 61 | 1012.7 |
| 20260504201324 | 15 | 80 | 8.0 | 14.5 | 0.00 | 0.00 | 0.00 | 62 | 1012.7 |
| 20260504200847 | 15 | 66 | 6.4 | 14.5 | 0.00 | 0.00 | 0.00 | 62 | 1012.6 |
| 20260504200045 | 15 | 114 | 4.8 | 11.3 | 0.00 | 0.00 | 0.00 | 61 | 1012.7 |
| 20260504195537 | 15 | 48 | 8.0 | 19.3 | 0.00 | 0.00 | 0.00 | 61 | 1012.7 |
| 20260504195037 | 15 | 72 | 11.3 | 19.3 | 0.00 | 0.00 | 0.00 | 61 | 1012.7 |
| 20260504194537 | 15 | 71 | 9.7 | 17.7 | 0.00 | 0.00 | 0.00 | 60 | 1012.7 |
| 20260504194321 | 15 | 56 | 11.3 | 17.7 | 0.00 | 0.00 | 0.00 | 61 | 1012.7 |
| 20260504193535 | 15 | 93 | 6.4 | 9.7 | 0.00 | 0.00 | 0.00 | 61 | 1012.6 |
| 20260504193042 | 16 | 110 | 6.4 | 9.7 | 0.00 | 0.00 | 0.00 | 60 | 1012.6 |
| 20260504192814 | 16 | 93 | 6.4 | 11.3 | 0.00 | 0.00 | 0.00 | 59 | 1012.7 |
| 20260504192034 | 16 | 106 | 6.4 | 14.5 | 0.00 | 0.00 | 0.00 | 57 | 1012.7 |
| 20260504191532 | 16 | 85 | 9.7 | 14.5 | 0.00 | 0.00 | 0.00 | 56 | 1012.5 |
| 20260504191030 | 16 | 82 | 6.4 | 9.7 | 0.00 | 0.00 | 0.00 | 55 | 1012.5 |
| 20260504190530 | 16 | 66 | 8.0 | 11.3 | 0.00 | 0.00 | 0.00 | 54 | 1012.4 |
| 20260504190105 | 16 | 86 | 8.0 | 14.5 | 0.00 | 0.00 | 0.00 | 52 | 1012.3 |
| 20260504190049 | 16 | 83 | 6.4 | 11.3 | 0.00 | 0.00 | 0.00 | 52 | 1012.4 |
| 20260504185031 | 17 | 79 | 9.7 | 22.5 | 0.00 | 0.00 | 0.00 | 51 | 1012.3 |
| 20260504184529 | 17 | 90 | 14.5 | 22.5 | 0.00 | 0.00 | 0.00 | 51 | 1012.2 |
| 20260504184304 | 16 | 75 | 8.0 | 14.5 | 0.00 | 0.00 | 0.00 | 52 | 1012.2 |
| 20260504183528 | 17 | 72 | 4.8 | 8.0 | 0.00 | 0.00 | 0.00 | 52 | 1012.2 |
| 20260504183048 | 17 | 113 | 3.2 | 11.3 | 0.00 | 0.00 | 0.00 | 51 | 1012.3 |
| 20260504182025 | 17 | 66 | 4.8 | 6.4 | 0.00 | 0.00 | 0.00 | 50 | 1012.1 |
| 20260504181808 | 17 | 99 | 1.6 | 6.4 | 0.00 | 0.00 | 0.00 | 50 | 1012.1 |
| 20260504181026 | 17 | 102 | 0.0 | 9.7 | 0.00 | 0.00 | 0.00 | 50 | 1012.0 |
| 20260504180807 | 17 | 158 | 3.2 | 9.7 | 0.00 | 0.00 | 0.00 | 50 | 1012.0 |
| 20260504180029 | 17 | 97 | 1.6 | 4.8 | 0.00 | 0.00 | 0.00 | 50 | 1011.9 |
| 20260504175508 | 17 | 11 | 3.2 | 6.4 | 0.00 | 0.00 | 0.00 | 51 | 1012.0 |
| 20260504175008 | 18 | 11 | 3.2 | 9.7 | 0.00 | 0.00 | 0.00 | 50 | 1011.9 |
| 20260504174744 | 18 | 255 | 3.2 | 11.3 | 0.00 | 0.00 | 0.00 | 49 | 1011.8 |
| 20260504174009 | 18 | 141 | 4.8 | 25.7 | 0.00 | 0.00 | 0.00 | 47 | 1011.9 |
| 20260504173509 | 18 | 162 | 9.7 | 25.7 | 0.00 | 0.00 | 0.00 | 46 | 1011.8 |
| 20260504173007 | 18 | 44 | 12.9 | 22.5 | 0.00 | 0.00 | 0.00 | 47 | 1011.8 |
| 20260504172751 | 18 | 111 | 14.5 | 27.4 | 0.00 | 0.00 | 0.00 | 47 | 1011.8 |
| 20260504172022 | 18 | 82 | 14.5 | 29.0 | 0.00 | 0.00 | 0.00 | 46 | 1011.6 |
| 20260504171509 | 18 | 63 | 16.1 | 32.2 | 0.00 | 0.00 | 0.00 | 46 | 1011.8 |
| 20260504171008 | 18 | 138 | 16.1 | 32.2 | 0.00 | 0.00 | 0.00 | 46 | 1011.9 |
| 20260504170508 | 18 | 75 | 9.7 | 27.4 | 0.00 | 0.00 | 0.00 | 46 | 1011.7 |
| 20260504160328 | 19 | 212 | 4.8 | 11.3 | 0.00 | 0.00 | 0.00 | 46 | 1011.7 |
| 20260504160324 | 19 | 39 | 6.4 | 11.3 | 0.00 | 0.00 | 0.00 | 46 | 1011.8 |
| 20260504150734 | 21 | 116 | 8.0 | 17.7 | 0.00 | 0.00 | 0.00 | 41 | 1011.7 |
| 20260504140944 | 21 | 148 | 6.4 | 17.7 | 0.00 | 0.00 | 0.00 | 40 | 1011.9 |
| 20260504140443 | 21 | 214 | 4.8 | 14.5 | 0.00 | 0.00 | 0.00 | 42 | 1012.0 |
| 20260504130443 | 20 | 128 | 8.0 | 20.9 | 0.00 | 0.00 | 0.00 | 43 | 1012.4 |
| 20260504110442 | 18 | 182 | 3.2 | 6.4 | 0.00 | 0.00 | 0.00 | 50 | 1013.3 |
| 20260504100442 | 17 | 233 | 4.8 | 8.0 | 0.00 | 0.00 | 0.00 | 50 | 1013.7 |
| 20260504081437 | 16 | 282 | 1.6 | 4.8 | 0.00 | 0.00 | 0.00 | 53 | 1014.1 |
| 20260504080937 | 15 | 281 | 0.0 | 4.8 | 0.00 | 0.00 | 0.00 | 55 | 1014.2 |
| 20260504080436 | 15 | 281 | 1.6 | 4.8 | 0.00 | 0.00 | 0.00 | 56 | 1014.2 |
| 20260504080236 | 15 | 281 | 1.6 | 4.8 | 0.00 | 0.00 | 0.00 | 57 | 1014.2 |
| 20260504070228 | 13 | 42 | 0.0 | 4.8 | 0.00 | 0.00 | 0.00 | 62 | 1013.9 |
| 20260504050710 | 11 | 38 | 3.2 | 4.8 | 0.00 | 0.00 | 0.00 | 62 | 1013.7 |
| 20260504045915 | 11 | 38 | 3.2 | 4.8 | 0.00 | 0.00 | 0.00 | 62 | 1013.6 |